This is the latest recevied weather packets stored in our database for station/object K6GMW. If no packets are shown the sender has not sent any weather packets the latest 10 day(s).
| Time | Temp. | Humidity | Pressure | Rain* | Wind** | Luminosity | Snow |
|---|---|---|---|---|---|---|---|
| 1777911748 | 22.78° C | 51% | 1015.7 hPa | 0 mm | - | 922 W/m² | - |
| 1777911445 | 23.33° C | 52% | 1015.7 hPa | 0 mm | - | 901 W/m² | - |
| 1777911142 | 22.78° C | 52% | 1015.9 hPa | 0 mm | - | 819 W/m² | - |
| 1777910840 | 22.78° C | 55% | 1016 hPa | 0 mm | - | 870 W/m² | - |
| 1777910536 | 22.78° C | 56% | 1016 hPa | 0 mm | - | 871 W/m² | - |
| 1777910233 | 22.22° C | 55% | 1016.2 hPa | 0 mm | - | 783 W/m² | - |
| 1777909930 | 22.22° C | 54% | 1016.2 hPa | 0 mm | - | 818 W/m² | - |
| 1777909627 | 22.22° C | 56% | 1016.1 hPa | 0 mm | - | 830 W/m² | - |
| 1777909324 | 21.67° C | 56% | 1016.3 hPa | 0 mm | - | 815 W/m² | - |
| 1777909022 | 21.67° C | 56% | 1016.4 hPa | 0 mm | - | 673 W/m² | - |
| 1777908720 | 21.67° C | 55% | 1016.6 hPa | 0 mm | - | 822 W/m² | - |
| 1777908416 | 21.67° C | 56% | 1016.3 hPa | 0 mm | - | 803 W/m² | - |
| 1777908113 | 21.11° C | 57% | 1016.4 hPa | 0 mm | - | 636 W/m² | - |
| 1777907809 | 21.11° C | 57% | 1016.4 hPa | 0 mm | - | 754 W/m² | - |
| 1777907504 | 21.11° C | 60% | 1016.4 hPa | 0 mm | - | 602 W/m² | - |
| 1777907201 | 20.56° C | 59% | 1016.4 hPa | 0 mm | - | 686 W/m² | - |
| 1777906898 | 20.56° C | 62% | 1016.2 hPa | 0 mm | - | 611 W/m² | - |
| 1777906596 | 20.56° C | 61% | 1016.2 hPa | 0 mm | - | 567 W/m² | - |
| 1777906291 | 20.56° C | 63% | 1016.4 hPa | 0 mm | - | 671 W/m² | - |
| 1777905988 | 20° C | 63% | 1016.5 hPa | 0 mm | - | 586 W/m² | - |
| 1777905685 | 20° C | 65% | 1016.5 hPa | 0 mm | - | 599 W/m² | - |
| 1777905381 | 20° C | 64% | 1016.6 hPa | 0 mm | - | 525 W/m² | - |
| 1777905079 | 19.44° C | 64% | 1016.5 hPa | 0 mm | - | 560 W/m² | - |
| 1777904776 | 19.44° C | 68% | 1016.6 hPa | 0 mm | - | 565 W/m² | - |
| 1777904473 | 19.44° C | 66% | 1016.7 hPa | 0 mm | - | 519 W/m² | - |
* Rain latest hour (hover to see other rain measurements)
** Current wind speed in m/s (hover to see current wind gust speed)